iso_date,epoch_date,Year,Hour,Min,DOY,POS_DOY,Lat,Lon,BP,Ts,Ta,has_bp,has_ts,has_ta,BuoyID,Buoy_Type,Buoy_Owner,Logistics,Hemisphere
2015-08-08T11:49:55Z,1439034595,2015,11,0,220.493,220.493,53.90358,-166.52649,1005.9,-0.01,-999.0,yes,yes,no,300234062492480,UPTEMPO,PSC-UPTEMPO,Healy,North
2015-08-08T12:00:00Z,1439035200,2015,12,0,220.5,220.5,53.9035,-166.52644,1005.8,16.42,-999.0,yes,yes,no,300234062492480,UPTEMPO,PSC-UPTEMPO,Healy,North
2015-08-08T12:10:04Z,1439035805,2015,12,0,220.507,220.507,53.90348,-166.52658,1005.7,16.62,-999.0,yes,yes,no,300234062492480,UPTEMPO,PSC-UPTEMPO,Healy,North
2015-08-08T12:20:09Z,1439036410,2015,12,0,220.514,220.514,53.90349,-166.52644,1005.7,16.53,-999.0,yes,yes,no,300234062492480,UPTEMPO,PSC-UPTEMPO,Healy,North
2015-08-08T12:30:14Z,1439037014,2015,12,0,220.521,220.521,53.9035,-166.52647,1005.8,16.47,-999.0,yes,yes,no,300234062492480,UPTEMPO,PSC-UPTEMPO,Healy,North
2015-08-08T12:40:19Z,1439037619,2015,12,0,220.528,220.528,53.9035,-166.52653,1005.6,16.65,-999.0,yes,yes,no,300234062492480,UPTEMPO,PSC-UPTEMPO,Healy,North
2015-08-08T12:50:24Z,1439038224,2015,12,0,220.535,220.535,53.90351,-166.52647,1005.3,16.85,-999.0,yes,yes,no,300234062492480,UPTEMPO,PSC-UPTEMPO,Healy,North
2015-08-08T13:00:28Z,1439038829,2015,13,0,220.542,220.542,53.90348,-166.52643,1005.4,17.02,-999.0,yes,yes,no,300234062492480,UPTEMPO,PSC-UPTEMPO,Healy,North
2015-08-08T13:10:33Z,1439039434,2015,13,0,220.549,220.549,53.90343,-166.52622,1005.3,17.31,-999.0,yes,yes,no,300234062492480,UPTEMPO,PSC-UPTEMPO,Healy,North
2015-08-08T13:19:12Z,1439039952,2015,13,0,220.555,220.555,53.9033,-166.52646,1005.3,17.45,-999.0,yes,yes,no,300234062492480,UPTEMPO,PSC-UPTEMPO,Healy,North
2015-08-08T13:29:16Z,1439040557,2015,13,0,220.562,220.562,53.90367,-166.5266,1005.1,17.49,-999.0,yes,yes,no,300234062492480,UPTEMPO,PSC-UPTEMPO,Healy,North
2015-08-08T13:40:48Z,1439041248,2015,13,0,220.57,220.57,53.90393,-166.52637,1005.1,17.48,-999.0,yes,yes,no,300234062492480,UPTEMPO,PSC-UPTEMPO,Healy,North
2015-08-08T13:49:26Z,1439041766,2015,13,0,220.576,220.576,53.90351,-166.52655,1005.3,17.44,-999.0,yes,yes,no,300234062492480,UPTEMPO,PSC-UPTEMPO,Healy,North
2015-08-08T13:59:31Z,1439042371,2015,14,0,220.583,220.583,53.90342,-166.52646,1004.9,17.44,-999.0,yes,yes,no,300234062492480,UPTEMPO,PSC-UPTEMPO,Healy,North
2015-08-08T14:09:36Z,1439042976,2015,14,0,220.59,220.59,53.90333,-166.5265,1004.9,17.34,-999.0,yes,yes,no,300234062492480,UPTEMPO,PSC-UPTEMPO,Healy,North
2015-08-08T14:19:40Z,1439043581,2015,14,0,220.597,220.597,53.90348,-166.52663,1004.8,17.2,-999.0,yes,yes,no,300234062492480,UPTEMPO,PSC-UPTEMPO,Healy,North
2015-08-08T14:29:45Z,1439044186,2015,14,0,220.604,220.604,53.90347,-166.5265,1004.9,17.3,-999.0,yes,yes,no,300234062492480,UPTEMPO,PSC-UPTEMPO,Healy,North
2015-08-08T14:39:50Z,1439044790,2015,14,0,220.611,220.611,53.90342,-166.52657,1004.9,16.74,-999.0,yes,yes,no,300234062492480,UPTEMPO,PSC-UPTEMPO,Healy,North
2015-08-08T14:49:55Z,1439045395,2015,14,0,220.618,220.618,53.90335,-166.52649,1004.8,16.77,-999.0,yes,yes,no,300234062492480,UPTEMPO,PSC-UPTEMPO,Healy,North
2015-08-08T15:00:00Z,1439046000,2015,15,0,220.625,220.625,53.9034,-166.52675,1004.5,17.08,-999.0,yes,yes,no,300234062492480,UPTEMPO,PSC-UPTEMPO,Healy,North
2015-08-08T15:10:04Z,1439046605,2015,15,0,220.632,220.632,53.90334,-166.52641,1004.5,17.28,-999.0,yes,yes,no,300234062492480,UPTEMPO,PSC-UPTEMPO,Healy,North
2015-08-08T15:20:09Z,1439047210,2015,15,0,220.639,220.639,53.9034,-166.52647,1004.4,17.32,-999.0,yes,yes,no,300234062492480,UPTEMPO,PSC-UPTEMPO,Healy,North
2015-08-08T15:30:14Z,1439047814,2015,15,0,220.646,220.646,53.90335,-166.52638,1004.4,17.4,-999.0,yes,yes,no,300234062492480,UPTEMPO,PSC-UPTEMPO,Healy,North
2015-08-08T15:40:19Z,1439048419,2015,15,0,220.653,220.653,53.90314,-166.52646,1004.8,17.62,-999.0,yes,yes,no,300234062492480,UPTEMPO,PSC-UPTEMPO,Healy,North
2015-08-08T15:50:24Z,1439049024,2015,15,0,220.66,220.66,53.90371,-166.5269,1004.7,17.6,-999.0,yes,yes,no,300234062492480,UPTEMPO,PSC-UPTEMPO,Healy,North
2015-08-08T16:00:28Z,1439049629,2015,16,0,220.667,220.667,53.90413,-166.5265,1004.6,17.56,-999.0,yes,yes,no,300234062492480,UPTEMPO,PSC-UPTEMPO,Healy,North
2015-08-08T16:10:33Z,1439050234,2015,16,0,220.674,220.674,53.9035,-166.5266,1004.7,17.28,-999.0,yes,yes,no,300234062492480,UPTEMPO,PSC-UPTEMPO,Healy,North
2015-08-08T16:19:12Z,1439050752,2015,16,0,220.68,220.68,53.90371,-166.5267,1005.0,17.12,-999.0,yes,yes,no,300234062492480,UPTEMPO,PSC-UPTEMPO,Healy,North
2015-08-08T16:30:43Z,1439051443,2015,16,0,220.688,220.688,53.90328,-166.5267,1005.2,16.93,-999.0,yes,yes,no,300234062492480,UPTEMPO,PSC-UPTEMPO,Healy,North
2015-08-08T16:40:48Z,1439052048,2015,16,0,220.695,220.695,53.90326,-166.52622,1005.1,16.7,-999.0,yes,yes,no,300234062492480,UPTEMPO,PSC-UPTEMPO,Healy,North
2015-08-08T16:49:26Z,1439052566,2015,16,0,220.701,220.701,53.90353,-166.52702,1005.2,16.3,-999.0,yes,yes,no,300234062492480,UPTEMPO,PSC-UPTEMPO,Healy,North
2015-08-08T16:59:31Z,1439053171,2015,17,0,220.708,220.708,53.90351,-166.52641,1005.2,16.19,-999.0,yes,yes,no,300234062492480,UPTEMPO,PSC-UPTEMPO,Healy,North
2015-08-08T17:09:36Z,1439053776,2015,17,0,220.715,220.715,53.90342,-166.52653,1005.3,16.12,-999.0,yes,yes,no,300234062492480,UPTEMPO,PSC-UPTEMPO,Healy,North
2015-08-08T17:19:40Z,1439054381,2015,17,0,220.722,220.722,53.90342,-166.52647,1005.2,15.99,-999.0,yes,yes,no,300234062492480,UPTEMPO,PSC-UPTEMPO,Healy,North
2015-08-08T17:29:45Z,1439054986,2015,17,0,220.729,220.729,53.90348,-166.5265,1005.3,16.01,-999.0,yes,yes,no,300234062492480,UPTEMPO,PSC-UPTEMPO,Healy,North
2015-08-08T17:39:50Z,1439055590,2015,17,0,220.736,220.736,53.90356,-166.5265,1005.4,16.14,-999.0,yes,yes,no,300234062492480,UPTEMPO,PSC-UPTEMPO,Healy,North
2015-08-08T17:49:55Z,1439056195,2015,17,0,220.743,220.743,53.90345,-166.52649,1005.5,16.35,-999.0,yes,yes,no,300234062492480,UPTEMPO,PSC-UPTEMPO,Healy,North
2015-08-08T18:00:00Z,1439056800,2015,18,0,220.75,220.75,53.90346,-166.52655,1005.4,16.53,-999.0,yes,yes,no,300234062492480,UPTEMPO,PSC-UPTEMPO,Healy,North
2015-08-08T18:10:04Z,1439057405,2015,18,0,220.757,220.757,53.90343,-166.52653,1005.4,16.76,-999.0,yes,yes,no,300234062492480,UPTEMPO,PSC-UPTEMPO,Healy,North
2015-08-08T18:20:09Z,1439058010,2015,18,0,220.764,220.764,53.90336,-166.52658,1005.4,16.95,-999.0,yes,yes,no,300234062492480,UPTEMPO,PSC-UPTEMPO,Healy,North
2015-08-08T18:30:14Z,1439058614,2015,18,0,220.771,220.771,53.90367,-166.5265,1005.5,16.76,-999.0,yes,yes,no,300234062492480,UPTEMPO,PSC-UPTEMPO,Healy,North
2015-08-08T18:40:19Z,1439059219,2015,18,0,220.778,220.778,53.90339,-166.52652,1005.4,16.56,-999.0,yes,yes,no,300234062492480,UPTEMPO,PSC-UPTEMPO,Healy,North
2015-08-08T18:50:24Z,1439059824,2015,18,0,220.785,220.785,53.90344,-166.52652,1005.5,16.68,-999.0,yes,yes,no,300234062492480,UPTEMPO,PSC-UPTEMPO,Healy,North
2015-08-08T19:00:28Z,1439060429,2015,19,0,220.792,220.792,53.90403,-166.52756,1005.3,16.81,-999.0,yes,yes,no,300234062492480,UPTEMPO,PSC-UPTEMPO,Healy,North
2015-08-08T19:10:33Z,1439061034,2015,19,0,220.799,220.799,53.90359,-166.52647,1005.3,16.97,-999.0,yes,yes,no,300234062492480,UPTEMPO,PSC-UPTEMPO,Healy,North
2015-08-08T19:19:12Z,1439061552,2015,19,0,220.805,220.805,53.90372,-166.5266,1005.3,17.23,-999.0,yes,yes,no,300234062492480,UPTEMPO,PSC-UPTEMPO,Healy,North
2015-08-08T19:29:16Z,1439062157,2015,19,0,220.812,220.812,53.90351,-166.52657,1005.2,17.2,-999.0,yes,yes,no,300234062492480,UPTEMPO,PSC-UPTEMPO,Healy,North
2015-08-08T19:40:48Z,1439062848,2015,19,0,220.82,220.82,53.90342,-166.52652,1005.2,17.71,-999.0,yes,yes,no,300234062492480,UPTEMPO,PSC-UPTEMPO,Healy,North
2015-08-08T19:49:26Z,1439063366,2015,19,0,220.826,220.826,53.90362,-166.52652,1005.2,17.89,-999.0,yes,yes,no,300234062492480,UPTEMPO,PSC-UPTEMPO,Healy,North
2015-08-08T19:59:31Z,1439063971,2015,20,0,220.833,220.833,53.90339,-166.52655,1005.2,18.23,-999.0,yes,yes,no,300234062492480,UPTEMPO,PSC-UPTEMPO,Healy,North
2015-08-08T20:09:36Z,1439064576,2015,20,0,220.84,220.84,53.90352,-166.52638,1005.3,18.79,-999.0,yes,yes,no,300234062492480,UPTEMPO,PSC-UPTEMPO,Healy,North
2015-08-08T20:19:40Z,1439065181,2015,20,0,220.847,220.847,53.90347,-166.52615,1005.3,19.47,-999.0,yes,yes,no,300234062492480,UPTEMPO,PSC-UPTEMPO,Healy,North
2015-08-08T20:29:45Z,1439065786,2015,20,0,220.854,220.854,53.90354,-166.52653,1005.3,20.0,-999.0,yes,yes,no,300234062492480,UPTEMPO,PSC-UPTEMPO,Healy,North
2015-08-08T20:39:50Z,1439066390,2015,20,0,220.861,220.861,53.90369,-166.52637,1005.4,20.67,-999.0,yes,yes,no,300234062492480,UPTEMPO,PSC-UPTEMPO,Healy,North
2015-08-08T20:49:55Z,1439066995,2015,20,0,220.868,220.868,53.90354,-166.52643,1005.4,20.22,-999.0,yes,yes,no,300234062492480,UPTEMPO,PSC-UPTEMPO,Healy,North
2015-08-08T21:00:00Z,1439067600,2015,21,0,220.875,220.875,53.90322,-166.52653,1005.5,19.98,-999.0,yes,yes,no,300234062492480,UPTEMPO,PSC-UPTEMPO,Healy,North
2015-08-08T21:10:04Z,1439068205,2015,21,0,220.882,220.882,53.90337,-166.52655,1005.4,19.49,-999.0,yes,yes,no,300234062492480,UPTEMPO,PSC-UPTEMPO,Healy,North
2015-08-08T21:20:09Z,1439068810,2015,21,0,220.889,220.889,53.90357,-166.52655,1005.6,19.06,-999.0,yes,yes,no,300234062492480,UPTEMPO,PSC-UPTEMPO,Healy,North
2015-08-08T21:30:14Z,1439069414,2015,21,0,220.896,220.896,53.9034,-166.52618,1005.6,19.09,-999.0,yes,yes,no,300234062492480,UPTEMPO,PSC-UPTEMPO,Healy,North
2015-08-08T21:40:19Z,1439070019,2015,21,0,220.903,220.903,53.9035,-166.52646,1005.7,19.25,-999.0,yes,yes,no,300234062492480,UPTEMPO,PSC-UPTEMPO,Healy,North
2015-08-08T21:50:24Z,1439070624,2015,21,0,220.91,220.91,53.90363,-166.52646,1005.7,19.53,-999.0,yes,yes,no,300234062492480,UPTEMPO,PSC-UPTEMPO,Healy,North
2015-08-08T22:00:28Z,1439071229,2015,22,0,220.917,220.917,53.90351,-166.52647,1005.7,20.07,-999.0,yes,yes,no,300234062492480,UPTEMPO,PSC-UPTEMPO,Healy,North
2015-08-08T22:10:33Z,1439071834,2015,22,0,220.924,220.924,53.90362,-166.52646,1005.8,20.44,-999.0,yes,yes,no,300234062492480,UPTEMPO,PSC-UPTEMPO,Healy,North
2015-08-08T22:19:12Z,1439072352,2015,22,0,220.93,220.93,53.90368,-166.52631,1005.9,21.63,-999.0,yes,yes,no,300234062492480,UPTEMPO,PSC-UPTEMPO,Healy,North
2015-08-08T22:30:43Z,1439073043,2015,22,0,220.938,220.938,53.90386,-166.52635,1006.0,20.84,-999.0,yes,yes,no,300234062492480,UPTEMPO,PSC-UPTEMPO,Healy,North
2015-08-08T22:40:48Z,1439073648,2015,22,0,220.945,220.945,53.90371,-166.52626,1006.0,20.83,-999.0,yes,yes,no,300234062492480,UPTEMPO,PSC-UPTEMPO,Healy,North
2015-08-08T22:49:26Z,1439074166,2015,22,0,220.951,220.951,53.90354,-166.52653,1006.1,20.12,-999.0,yes,yes,no,300234062492480,UPTEMPO,PSC-UPTEMPO,Healy,North
2015-08-08T22:59:31Z,1439074771,2015,23,0,220.958,220.958,53.90352,-166.52649,1006.2,19.37,-999.0,yes,yes,no,300234062492480,UPTEMPO,PSC-UPTEMPO,Healy,North
2015-08-08T23:09:36Z,1439075376,2015,23,0,220.965,220.965,53.90348,-166.52647,1006.2,19.73,-999.0,yes,yes,no,300234062492480,UPTEMPO,PSC-UPTEMPO,Healy,North
2015-08-08T23:19:40Z,1439075981,2015,23,0,220.972,220.972,53.90342,-166.5266,1006.1,20.34,-999.0,yes,yes,no,300234062492480,UPTEMPO,PSC-UPTEMPO,Healy,North
2015-08-08T23:29:45Z,1439076586,2015,23,0,220.979,220.979,53.90341,-166.52658,1006.0,20.26,-999.0,yes,yes,no,300234062492480,UPTEMPO,PSC-UPTEMPO,Healy,North
2015-08-08T23:39:50Z,1439077190,2015,23,0,220.986,220.986,53.9033,-166.52649,1005.9,20.56,-999.0,yes,yes,no,300234062492480,UPTEMPO,PSC-UPTEMPO,Healy,North
2015-08-08T23:49:55Z,1439077795,2015,23,0,220.993,220.993,53.90341,-166.52638,1006.0,20.49,-999.0,yes,yes,no,300234062492480,UPTEMPO,PSC-UPTEMPO,Healy,North
2015-08-09T00:00:00Z,1439078400,2015,0,0,221.0,221.0,53.90328,-166.52631,1006.0,20.73,-999.0,yes,yes,no,300234062492480,UPTEMPO,PSC-UPTEMPO,Healy,North
2015-08-09T00:10:04Z,1439079005,2015,0,0,221.007,221.007,53.90363,-166.52655,1006.0,21.06,-999.0,yes,yes,no,300234062492480,UPTEMPO,PSC-UPTEMPO,Healy,North
2015-08-09T00:20:09Z,1439079610,2015,0,0,221.014,221.014,53.90352,-166.52641,1006.1,21.7,-999.0,yes,yes,no,300234062492480,UPTEMPO,PSC-UPTEMPO,Healy,North
2015-08-09T00:30:14Z,1439080214,2015,0,0,221.021,221.021,53.90358,-166.52661,1006.2,22.24,-999.0,yes,yes,no,300234062492480,UPTEMPO,PSC-UPTEMPO,Healy,North
2015-08-09T00:40:19Z,1439080819,2015,0,0,221.028,221.028,53.90349,-166.52646,1006.2,21.98,-999.0,yes,yes,no,300234062492480,UPTEMPO,PSC-UPTEMPO,Healy,North
2015-08-09T00:50:24Z,1439081424,2015,0,0,221.035,221.035,53.90358,-166.52658,1006.3,21.56,-999.0,yes,yes,no,300234062492480,UPTEMPO,PSC-UPTEMPO,Healy,North
2015-08-09T01:00:28Z,1439082029,2015,1,0,221.042,221.042,53.90355,-166.52681,1006.2,21.01,-999.0,yes,yes,no,300234062492480,UPTEMPO,PSC-UPTEMPO,Healy,North
2015-08-09T01:10:33Z,1439082634,2015,1,0,221.049,221.049,53.90343,-166.52658,1006.2,20.16,-999.0,yes,yes,no,300234062492480,UPTEMPO,PSC-UPTEMPO,Healy,North
2015-08-09T01:19:12Z,1439083152,2015,1,0,221.055,221.055,53.90349,-166.52658,1006.2,19.57,-999.0,yes,yes,no,300234062492480,UPTEMPO,PSC-UPTEMPO,Healy,North
2015-08-09T01:29:16Z,1439083757,2015,1,0,221.062,221.062,53.90345,-166.52641,1006.4,19.57,-999.0,yes,yes,no,300234062492480,UPTEMPO,PSC-UPTEMPO,Healy,North
2015-08-09T01:40:48Z,1439084448,2015,1,0,221.07,221.07,53.90346,-166.52652,1006.6,19.34,-999.0,yes,yes,no,300234062492480,UPTEMPO,PSC-UPTEMPO,Healy,North
2015-08-09T01:49:26Z,1439084966,2015,1,0,221.076,221.076,53.90347,-166.52635,1006.4,18.98,-999.0,yes,yes,no,300234062492480,UPTEMPO,PSC-UPTEMPO,Healy,North
2015-08-09T01:59:31Z,1439085571,2015,2,0,221.083,221.083,53.90345,-166.52647,1006.5,18.93,-999.0,yes,yes,no,300234062492480,UPTEMPO,PSC-UPTEMPO,Healy,North
2015-08-09T02:09:36Z,1439086176,2015,2,0,221.09,221.09,53.90331,-166.52628,1006.6,19.51,-999.0,yes,yes,no,300234062492480,UPTEMPO,PSC-UPTEMPO,Healy,North
2015-08-09T02:19:40Z,1439086781,2015,2,0,221.097,221.097,53.90344,-166.52632,1006.7,19.8,-999.0,yes,yes,no,300234062492480,UPTEMPO,PSC-UPTEMPO,Healy,North
2015-08-09T02:29:45Z,1439087386,2015,2,0,221.104,221.104,53.90304,-166.52618,1006.9,20.26,-999.0,yes,yes,no,300234062492480,UPTEMPO,PSC-UPTEMPO,Healy,North
2015-08-09T02:39:50Z,1439087990,2015,2,0,221.111,221.111,53.90331,-166.52626,1006.8,19.77,-999.0,yes,yes,no,300234062492480,UPTEMPO,PSC-UPTEMPO,Healy,North
2015-08-09T02:49:55Z,1439088595,2015,2,0,221.118,221.118,53.90329,-166.52641,1007.0,18.62,-999.0,yes,yes,no,300234062492480,UPTEMPO,PSC-UPTEMPO,Healy,North
2015-08-09T03:00:00Z,1439089200,2015,3,0,221.125,221.125,53.90349,-166.52646,1007.0,18.45,-999.0,yes,yes,no,300234062492480,UPTEMPO,PSC-UPTEMPO,Healy,North
2015-08-09T03:10:04Z,1439089805,2015,3,0,221.132,221.132,53.90379,-166.52684,1007.1,18.84,-999.0,yes,yes,no,300234062492480,UPTEMPO,PSC-UPTEMPO,Healy,North
2015-08-09T03:20:09Z,1439090410,2015,3,0,221.139,221.139,53.90363,-166.5265,1006.9,18.55,-999.0,yes,yes,no,300234062492480,UPTEMPO,PSC-UPTEMPO,Healy,North
2015-08-09T03:30:14Z,1439091014,2015,3,0,221.146,221.146,53.90348,-166.52667,1007.0,19.23,-999.0,yes,yes,no,300234062492480,UPTEMPO,PSC-UPTEMPO,Healy,North
2015-08-09T03:40:19Z,1439091619,2015,3,0,221.153,221.153,53.90339,-166.52618,1007.0,19.9,-999.0,yes,yes,no,300234062492480,UPTEMPO,PSC-UPTEMPO,Healy,North
2015-08-09T03:50:24Z,1439092224,2015,3,0,221.16,221.16,53.90315,-166.52609,1007.1,19.46,-999.0,yes,yes,no,300234062492480,UPTEMPO,PSC-UPTEMPO,Healy,North
2015-08-09T04:00:28Z,1439092829,2015,4,0,221.167,221.167,53.90372,-166.52634,1007.2,20.41,-999.0,yes,yes,no,300234062492480,UPTEMPO,PSC-UPTEMPO,Healy,North
2015-08-09T04:10:33Z,1439093434,2015,4,0,221.174,221.174,53.90363,-166.52632,1007.4,20.44,-999.0,yes,yes,no,300234062492480,UPTEMPO,PSC-UPTEMPO,Healy,North
2015-08-09T04:19:12Z,1439093952,2015,4,0,221.18,221.18,53.90371,-166.52638,1007.7,19.91,-999.0,yes,yes,no,300234062492480,UPTEMPO,PSC-UPTEMPO,Healy,North
2015-08-09T04:30:43Z,1439094643,2015,4,0,221.188,221.188,53.90364,-166.52638,1007.7,19.31,-999.0,yes,yes,no,300234062492480,UPTEMPO,PSC-UPTEMPO,Healy,North
2015-08-09T04:40:48Z,1439095248,2015,4,0,221.195,221.195,53.90344,-166.52638,1007.7,18.62,-999.0,yes,yes,no,300234062492480,UPTEMPO,PSC-UPTEMPO,Healy,North
2015-08-09T04:49:26Z,1439095766,2015,4,0,221.201,221.201,53.90349,-166.52641,1007.8,17.95,-999.0,yes,yes,no,300234062492480,UPTEMPO,PSC-UPTEMPO,Healy,North
2015-08-09T04:59:31Z,1439096371,2015,5,0,221.208,221.208,53.90345,-166.52653,1007.9,16.92,-999.0,yes,yes,no,300234062492480,UPTEMPO,PSC-UPTEMPO,Healy,North
2015-08-09T05:09:36Z,1439096976,2015,5,0,221.215,221.215,53.90348,-166.52647,1007.9,16.21,-999.0,yes,yes,no,300234062492480,UPTEMPO,PSC-UPTEMPO,Healy,North
2015-08-09T05:19:40Z,1439097581,2015,5,0,221.222,221.222,53.9034,-166.52643,1008.0,15.7,-999.0,yes,yes,no,300234062492480,UPTEMPO,PSC-UPTEMPO,Healy,North
2015-08-09T05:29:45Z,1439098186,2015,5,0,221.229,221.229,53.90328,-166.52628,1008.0,15.44,-999.0,yes,yes,no,300234062492480,UPTEMPO,PSC-UPTEMPO,Healy,North
2015-08-09T05:39:50Z,1439098790,2015,5,0,221.236,221.236,53.90332,-166.52635,1008.2,15.24,-999.0,yes,yes,no,300234062492480,UPTEMPO,PSC-UPTEMPO,Healy,North
2015-08-09T05:49:55Z,1439099395,2015,5,0,221.243,221.243,53.90345,-166.52666,1008.2,15.02,-999.0,yes,yes,no,300234062492480,UPTEMPO,PSC-UPTEMPO,Healy,North
2015-08-09T06:00:00Z,1439100000,2015,6,0,221.25,221.25,53.90337,-166.5262,1008.5,14.77,-999.0,yes,yes,no,300234062492480,UPTEMPO,PSC-UPTEMPO,Healy,North
2015-08-09T06:10:04Z,1439100605,2015,6,0,221.257,221.257,53.90342,-166.52628,1008.5,14.58,-999.0,yes,yes,no,300234062492480,UPTEMPO,PSC-UPTEMPO,Healy,North
2015-08-09T06:20:09Z,1439101210,2015,6,0,221.264,221.264,53.90493,-166.52672,1008.7,14.35,-999.0,yes,yes,no,300234062492480,UPTEMPO,PSC-UPTEMPO,Healy,North
2015-08-09T06:30:14Z,1439101814,2015,6,0,221.271,221.271,53.90383,-166.52624,1008.8,14.14,-999.0,yes,yes,no,300234062492480,UPTEMPO,PSC-UPTEMPO,Healy,North
2015-08-09T06:40:19Z,1439102419,2015,6,0,221.278,221.278,53.90347,-166.52644,1009.0,13.86,-999.0,yes,yes,no,300234062492480,UPTEMPO,PSC-UPTEMPO,Healy,North
2015-08-09T06:50:24Z,1439103024,2015,6,0,221.285,221.285,53.90344,-166.52582,1009.0,13.58,-999.0,yes,yes,no,300234062492480,UPTEMPO,PSC-UPTEMPO,Healy,North
2015-08-09T07:00:28Z,1439103629,2015,7,0,221.292,221.292,53.90337,-166.5265,1009.2,13.36,-999.0,yes,yes,no,300234062492480,UPTEMPO,PSC-UPTEMPO,Healy,North
2015-08-09T07:10:33Z,1439104234,2015,7,0,221.299,221.299,53.90353,-166.52629,1009.3,13.13,-999.0,yes,yes,no,300234062492480,UPTEMPO,PSC-UPTEMPO,Healy,North
2015-08-09T07:19:12Z,1439104752,2015,7,0,221.305,221.305,53.90338,-166.52591,1009.5,12.93,-999.0,yes,yes,no,300234062492480,UPTEMPO,PSC-UPTEMPO,Healy,North
2015-08-09T07:29:16Z,1439105357,2015,7,0,221.312,221.312,53.90352,-166.52589,1009.3,12.86,-999.0,yes,yes,no,300234062492480,UPTEMPO,PSC-UPTEMPO,Healy,North
2015-08-09T07:40:48Z,1439106048,2015,7,0,221.32,221.32,53.90345,-166.52515,1009.5,12.76,-999.0,yes,yes,no,300234062492480,UPTEMPO,PSC-UPTEMPO,Healy,North
2015-08-09T07:49:26Z,1439106566,2015,7,0,221.326,221.326,53.90356,-166.52644,1009.5,12.7,-999.0,yes,yes,no,300234062492480,UPTEMPO,PSC-UPTEMPO,Healy,North
2015-08-09T07:59:31Z,1439107171,2015,8,0,221.333,221.333,53.90356,-166.52641,1009.9,12.64,-999.0,yes,yes,no,300234062492480,UPTEMPO,PSC-UPTEMPO,Healy,North
2015-08-09T08:09:36Z,1439107776,2015,8,0,221.34,221.34,53.90341,-166.52652,1010.0,12.55,-999.0,yes,yes,no,300234062492480,UPTEMPO,PSC-UPTEMPO,Healy,North
2015-08-09T08:19:40Z,1439108381,2015,8,0,221.347,221.347,53.90353,-166.52647,1010.2,12.43,-999.0,yes,yes,no,300234062492480,UPTEMPO,PSC-UPTEMPO,Healy,North
2015-08-09T08:29:45Z,1439108986,2015,8,0,221.354,221.354,53.90346,-166.52658,1010.2,12.29,-999.0,yes,yes,no,300234062492480,UPTEMPO,PSC-UPTEMPO,Healy,North
2015-08-09T08:39:50Z,1439109590,2015,8,0,221.361,221.361,53.90346,-166.52653,1010.3,12.17,-999.0,yes,yes,no,300234062492480,UPTEMPO,PSC-UPTEMPO,Healy,North
2015-08-09T08:49:55Z,1439110195,2015,8,0,221.368,221.368,53.90339,-166.52666,1010.3,12.08,-999.0,yes,yes,no,300234062492480,UPTEMPO,PSC-UPTEMPO,Healy,North
2015-08-09T09:00:00Z,1439110800,2015,9,0,221.375,221.375,53.90353,-166.52653,1010.5,11.97,-999.0,yes,yes,no,300234062492480,UPTEMPO,PSC-UPTEMPO,Healy,North
2015-08-09T09:10:04Z,1439111405,2015,9,0,221.382,221.382,53.90342,-166.52653,1010.7,11.85,-999.0,yes,yes,no,300234062492480,UPTEMPO,PSC-UPTEMPO,Healy,North
2015-08-09T09:20:09Z,1439112010,2015,9,0,221.389,221.389,53.90354,-166.5265,1010.7,11.82,-999.0,yes,yes,no,300234062492480,UPTEMPO,PSC-UPTEMPO,Healy,North
2015-08-09T09:30:14Z,1439112614,2015,9,0,221.396,221.396,53.90358,-166.52653,1010.6,11.82,-999.0,yes,yes,no,300234062492480,UPTEMPO,PSC-UPTEMPO,Healy,North
2015-08-09T09:40:19Z,1439113219,2015,9,0,221.403,221.403,53.90359,-166.52646,1010.8,11.84,-999.0,yes,yes,no,300234062492480,UPTEMPO,PSC-UPTEMPO,Healy,North
2015-08-09T09:50:24Z,1439113824,2015,9,0,221.41,221.41,53.90356,-166.52643,1010.8,11.89,-999.0,yes,yes,no,300234062492480,UPTEMPO,PSC-UPTEMPO,Healy,North
2015-08-09T10:00:28Z,1439114429,2015,10,0,221.417,221.417,53.90346,-166.52632,1011.0,11.94,-999.0,yes,yes,no,300234062492480,UPTEMPO,PSC-UPTEMPO,Healy,North
2015-08-09T10:10:33Z,1439115034,2015,10,0,221.424,221.424,53.90364,-166.52635,1011.1,11.98,-999.0,yes,yes,no,300234062492480,UPTEMPO,PSC-UPTEMPO,Healy,North
2015-08-09T10:19:12Z,1439115552,2015,10,0,221.43,221.43,53.90339,-166.52629,1011.2,12.0,-999.0,yes,yes,no,300234062492480,UPTEMPO,PSC-UPTEMPO,Healy,North
2015-08-09T10:30:43Z,1439116243,2015,10,0,221.438,221.438,53.90394,-166.52637,1011.3,11.94,-999.0,yes,yes,no,300234062492480,UPTEMPO,PSC-UPTEMPO,Healy,North
2015-08-09T10:40:48Z,1439116848,2015,10,0,221.445,221.445,53.90351,-166.5265,1011.4,11.89,-999.0,yes,yes,no,300234062492480,UPTEMPO,PSC-UPTEMPO,Healy,North
2015-08-09T10:49:26Z,1439117366,2015,10,0,221.451,221.451,53.90355,-166.52643,1011.3,11.88,-999.0,yes,yes,no,300234062492480,UPTEMPO,PSC-UPTEMPO,Healy,North
2015-08-09T10:59:31Z,1439117971,2015,11,0,221.458,221.458,53.90357,-166.52647,1011.4,11.9,-999.0,yes,yes,no,300234062492480,UPTEMPO,PSC-UPTEMPO,Healy,North
2015-08-09T11:09:36Z,1439118576,2015,11,0,221.465,221.465,53.90326,-166.52638,1011.3,11.82,-999.0,yes,yes,no,300234062492480,UPTEMPO,PSC-UPTEMPO,Healy,North
2015-08-09T11:19:40Z,1439119181,2015,11,0,221.472,221.472,53.90328,-166.52632,1011.5,11.74,-999.0,yes,yes,no,300234062492480,UPTEMPO,PSC-UPTEMPO,Healy,North
2015-08-09T11:29:45Z,1439119786,2015,11,0,221.479,221.479,53.9016,-166.52649,1011.5,11.71,-999.0,yes,yes,no,300234062492480,UPTEMPO,PSC-UPTEMPO,Healy,North
2015-08-09T11:39:50Z,1439120390,2015,11,0,221.486,221.486,53.90348,-166.52644,1011.4,11.7,-999.0,yes,yes,no,300234062492480,UPTEMPO,PSC-UPTEMPO,Healy,North
2015-08-09T11:49:55Z,1439120995,2015,11,0,221.493,221.493,53.9036,-166.5266,1011.6,11.61,-999.0,yes,yes,no,300234062492480,UPTEMPO,PSC-UPTEMPO,Healy,North
2015-08-09T12:00:00Z,1439121600,2015,12,0,221.5,221.5,53.90344,-166.52653,1011.7,11.54,-999.0,yes,yes,no,300234062492480,UPTEMPO,PSC-UPTEMPO,Healy,North
2015-08-09T12:10:04Z,1439122205,2015,12,0,221.507,221.507,53.90297,-166.5271,1011.9,11.48,-999.0,yes,yes,no,300234062492480,UPTEMPO,PSC-UPTEMPO,Healy,North
2015-08-09T12:20:09Z,1439122810,2015,12,0,221.514,221.514,53.90355,-166.52652,1011.8,11.42,-999.0,yes,yes,no,300234062492480,UPTEMPO,PSC-UPTEMPO,Healy,North
2015-08-09T12:30:14Z,1439123414,2015,12,0,221.521,221.521,53.90357,-166.5265,1011.7,11.37,-999.0,yes,yes,no,300234062492480,UPTEMPO,PSC-UPTEMPO,Healy,North
2015-08-09T12:40:19Z,1439124019,2015,12,0,221.528,221.528,53.90347,-166.52664,1011.7,11.28,-999.0,yes,yes,no,300234062492480,UPTEMPO,PSC-UPTEMPO,Healy,North
2015-08-09T12:50:24Z,1439124624,2015,12,0,221.535,221.535,53.90353,-166.52632,1011.8,11.26,-999.0,yes,yes,no,300234062492480,UPTEMPO,PSC-UPTEMPO,Healy,North
2015-08-09T13:00:28Z,1439125229,2015,13,0,221.542,221.542,53.90355,-166.52644,1012.0,11.16,-999.0,yes,yes,no,300234062492480,UPTEMPO,PSC-UPTEMPO,Healy,North
2015-08-09T13:10:33Z,1439125834,2015,13,0,221.549,221.549,53.90374,-166.52666,1012.0,11.16,-999.0,yes,yes,no,300234062492480,UPTEMPO,PSC-UPTEMPO,Healy,North